Time,TemperatureF,DewpointF,PressureIn,WindDirection,WindDirectionDegrees,WindSpeedMPH,WindSpeedGustMPH,Humidity,HourlyPrecipIn,Conditions,Clouds,dailyrainin,SoftwareType,DateUTC
2013-07-05 00:22:00,82.0,79.0,-100.00,South,176,18.0,-999.0,91,0.00,,,-99.99,,2013-07-05 05:22:00,
2013-07-05 00:33:00,82.0,79.0,-100.00,South,176,18.0,-999.0,91,0.00,,,-99.99,,2013-07-05 05:33:00,
2013-07-05 00:43:00,82.0,79.0,-100.00,South,176,18.0,-999.0,91,0.00,,,-99.99,,2013-07-05 05:43:00,
2013-07-05 01:23:00,81.0,78.0,-100.00,South,180,18.0,-999.0,89,0.00,,,-99.99,,2013-07-05 06:23:00,
2013-07-05 01:34:00,81.0,78.0,-100.00,South,180,18.0,-999.0,89,0.00,,,-99.99,,2013-07-05 06:34:00,
2013-07-05 01:44:00,81.0,78.0,-100.00,South,180,18.0,-999.0,89,0.00,,,-99.99,,2013-07-05 06:44:00,
2013-07-05 02:23:00,81.0,77.0,-100.00,SSW,196,16.0,-999.0,88,0.00,,,-99.99,,2013-07-05 07:23:00,
2013-07-05 02:34:00,81.0,77.0,-100.00,SSW,196,16.0,-999.0,88,0.00,,,-99.99,,2013-07-05 07:34:00,
2013-07-05 02:43:00,81.0,77.0,-100.00,SSW,196,16.0,-999.0,88,0.00,,,-99.99,,2013-07-05 07:43:00,
2013-07-05 03:23:00,81.0,77.0,-100.00,SSW,196,12.0,-999.0,89,0.00,,,-99.99,,2013-07-05 08:23:00,
2013-07-05 03:33:00,81.0,77.0,-100.00,SSW,196,12.0,-999.0,89,0.00,,,-99.99,,2013-07-05 08:33:00,
2013-07-05 03:43:00,81.0,77.0,-100.00,SSW,196,12.0,-999.0,89,0.00,,,-99.99,,2013-07-05 08:43:00,
2013-07-05 03:45:00,81.0,77.0,-100.00,SSW,204,8.0,-999.0,88,0.00,,,-99.99,,2013-07-05 08:45:00,
2013-07-05 04:26:00,81.0,77.0,-100.00,SSW,204,8.0,-999.0,88,0.00,,,-99.99,,2013-07-05 09:26:00,
2013-07-05 04:45:00,81.0,77.0,-100.00,SSW,200,6.0,-999.0,90,0.00,,,-99.99,,2013-07-05 09:45:00,
2013-07-05 05:26:00,81.0,77.0,-100.00,SSW,200,6.0,-999.0,90,0.00,,,-99.99,,2013-07-05 10:26:00,
2013-07-05 05:36:00,81.0,77.0,-100.00,SSW,200,6.0,-999.0,90,0.00,,,-99.99,,2013-07-05 10:36:00,
2013-07-05 05:45:00,81.0,77.0,-100.00,SSW,194,4.0,-999.0,89,0.00,,,-99.99,,2013-07-05 10:45:00,
2013-07-05 06:24:00,81.0,77.0,-100.00,SSW,194,4.0,-999.0,89,0.00,,,-99.99,,2013-07-05 11:24:00,
2013-07-05 06:37:00,81.0,77.0,-100.00,SSW,194,4.0,-999.0,89,0.00,,,-99.99,,2013-07-05 11:37:00,
2013-07-05 06:45:00,80.0,78.0,-100.00,ESE,122,6.0,-999.0,92,0.00,,,-99.99,,2013-07-05 11:45:00,
2013-07-05 07:24:00,80.0,78.0,-100.00,ESE,122,6.0,-999.0,92,0.00,,,-99.99,,2013-07-05 12:24:00,
2013-07-05 07:37:00,80.0,78.0,-100.00,ESE,122,6.0,-999.0,92,0.00,,,-99.99,,2013-07-05 12:37:00,
2013-07-05 07:45:00,79.0,-99.9,-100.00,ESE,104,11.0,-999.0,102,0.00,,,-99.99,,2013-07-05 12:45:00,
2013-07-05 08:26:00,79.0,-99.9,-100.00,ESE,104,11.0,-999.0,102,0.00,,,-99.99,,2013-07-05 13:26:00,
2013-07-05 08:40:00,79.0,-99.9,-100.00,ESE,104,11.0,-999.0,102,0.00,,,-99.99,,2013-07-05 13:40:00,
2013-07-05 08:45:00,78.0,-99.9,-100.00,East,94,8.0,-999.0,101,0.00,,,-99.99,,2013-07-05 13:45:00,
2013-07-05 09:29:00,78.0,-99.9,-100.00,East,94,8.0,-999.0,101,0.00,,,-99.99,,2013-07-05 14:29:00,
2013-07-05 09:40:00,78.0,-99.9,-100.00,East,94,8.0,-999.0,101,0.00,,,-99.99,,2013-07-05 14:40:00,
2013-07-05 10:24:00,79.0,79.0,-100.00,SE,131,16.0,-999.0,100,0.01,,,-99.99,,2013-07-05 15:24:00,
2013-07-05 10:34:00,79.0,79.0,-100.00,SE,131,16.0,-999.0,100,0.01,,,-99.99,,2013-07-05 15:34:00,
2013-07-05 10:43:00,79.0,79.0,-100.00,SE,131,16.0,-999.0,100,0.01,,,-99.99,,2013-07-05 15:43:00,
2013-07-05 11:22:00,78.0,-99.9,-100.00,SSE,151,16.0,-999.0,110,0.03,,,-99.99,,2013-07-05 16:22:00,
2013-07-05 11:33:00,78.0,-99.9,-100.00,SSE,151,16.0,-999.0,110,0.03,,,-99.99,,2013-07-05 16:33:00,
2013-07-05 11:44:00,78.0,-99.9,-100.00,SSE,151,16.0,-999.0,110,0.03,,,-99.99,,2013-07-05 16:44:00,
2013-07-05 12:22:00,77.0,-99.9,-100.00,SSE,158,18.0,-999.0,114,0.10,,,-99.99,,2013-07-05 17:22:00,
2013-07-05 12:33:00,77.0,-99.9,-100.00,SSE,158,18.0,-999.0,114,0.10,,,-99.99,,2013-07-05 17:33:00,
2013-07-05 12:43:00,77.0,-99.9,-100.00,SSE,158,18.0,-999.0,114,0.10,,,-99.99,,2013-07-05 17:43:00,
2013-07-05 13:22:00,76.0,-99.9,-100.00,South,189,15.0,-999.0,114,0.12,,,-99.99,,2013-07-05 18:22:00,
2013-07-05 13:33:00,76.0,-99.9,-100.00,South,189,15.0,-999.0,114,0.12,,,-99.99,,2013-07-05 18:33:00,
2013-07-05 13:43:00,76.0,-99.9,-100.00,South,189,15.0,-999.0,114,0.12,,,-99.99,,2013-07-05 18:43:00,
2013-07-05 14:22:00,75.0,-99.9,-100.00,SW,215,14.0,-999.0,117,0.21,,,-99.99,,2013-07-05 19:22:00,
2013-07-05 14:34:00,75.0,-99.9,-100.00,SW,215,14.0,-999.0,117,0.21,,,-99.99,,2013-07-05 19:34:00,
2013-07-05 14:43:00,75.0,-99.9,-100.00,SW,215,14.0,-999.0,117,0.21,,,-99.99,,2013-07-05 19:43:00,
2013-07-05 15:23:00,76.0,-99.9,-100.00,SSW,202,16.0,-999.0,109,0.04,,,-99.99,,2013-07-05 20:23:00,
2013-07-05 15:33:00,76.0,-99.9,-100.00,SSW,202,16.0,-999.0,109,0.04,,,-99.99,,2013-07-05 20:33:00,
2013-07-05 15:43:00,76.0,-99.9,-100.00,SSW,202,16.0,-999.0,109,0.04,,,-99.99,,2013-07-05 20:43:00,
2013-07-05 16:22:00,76.0,75.0,-100.00,SSW,195,13.0,-999.0,95,0.00,,,-99.99,,2013-07-05 21:22:00,
2013-07-05 16:34:00,76.0,75.0,-100.00,SSW,195,13.0,-999.0,95,0.00,,,-99.99,,2013-07-05 21:34:00,
2013-07-05 16:43:00,76.0,75.0,-100.00,SSW,195,13.0,-999.0,95,0.00,,,-99.99,,2013-07-05 21:43:00,
2013-07-05 17:22:00,77.0,74.0,-100.00,South,175,13.0,-999.0,90,0.01,,,-99.99,,2013-07-05 22:22:00,
2013-07-05 17:34:00,77.0,74.0,-100.00,South,175,13.0,-999.0,90,0.01,,,-99.99,,2013-07-05 22:34:00,
2013-07-05 17:43:00,77.0,74.0,-100.00,South,175,13.0,-999.0,90,0.01,,,-99.99,,2013-07-05 22:43:00,
2013-07-05 18:23:00,78.0,73.0,-100.00,SE,137,20.0,-999.0,84,0.00,,,-99.99,,2013-07-05 23:23:00,
2013-07-05 18:32:00,78.0,73.0,-100.00,SE,137,20.0,-999.0,84,0.00,,,-99.99,,2013-07-05 23:32:00,
2013-07-05 18:43:00,78.0,73.0,-100.00,SE,137,20.0,-999.0,84,0.00,,,-99.99,,2013-07-05 23:43:00,
2013-07-05 19:22:00,77.0,74.0,-100.00,SE,140,23.0,-999.0,92,0.00,,,-99.99,,2013-07-06 00:22:00,
2013-07-05 19:33:00,77.0,74.0,-100.00,SE,140,23.0,-999.0,92,0.00,,,-99.99,,2013-07-06 00:33:00,
2013-07-05 19:42:00,77.0,74.0,-100.00,SE,140,23.0,-999.0,92,0.00,,,-99.99,,2013-07-06 00:42:00,
2013-07-05 20:22:00,76.0,75.0,-100.00,SE,137,22.0,-999.0,96,0.00,,,-99.99,,2013-07-06 01:22:00,
2013-07-05 20:33:00,76.0,75.0,-100.00,SE,137,22.0,-999.0,96,0.00,,,-99.99,,2013-07-06 01:33:00,
2013-07-05 20:43:00,76.0,75.0,-100.00,SE,137,22.0,-999.0,96,0.00,,,-99.99,,2013-07-06 01:43:00,
2013-07-05 21:22:00,76.0,74.0,-100.00,SE,136,20.0,-999.0,92,0.00,,,-99.99,,2013-07-06 02:22:00,
2013-07-05 21:34:00,76.0,74.0,-100.00,SE,136,20.0,-999.0,92,0.00,,,-99.99,,2013-07-06 02:34:00,
2013-07-05 21:43:00,76.0,74.0,-100.00,SE,136,20.0,-999.0,92,0.00,,,-99.99,,2013-07-06 02:43:00,
2013-07-05 22:22:00,76.0,73.0,-100.00,SE,131,18.0,-999.0,91,0.00,,,-99.99,,2013-07-06 03:22:00,
2013-07-05 22:34:00,76.0,73.0,-100.00,SE,131,18.0,-999.0,91,0.00,,,-99.99,,2013-07-06 03:34:00,
2013-07-05 22:43:00,76.0,73.0,-100.00,SE,131,18.0,-999.0,91,0.00,,,-99.99,,2013-07-06 03:43:00,
2013-07-05 23:22:00,77.0,75.0,-100.00,SE,129,18.0,-999.0,94,0.00,,,-99.99,,2013-07-06 04:22:00,
2013-07-05 23:33:00,77.0,75.0,-100.00,SE,129,18.0,-999.0,94,0.00,,,-99.99,,2013-07-06 04:33:00,
2013-07-05 23:43:00,77.0,75.0,-100.00,SE,129,18.0,-999.0,94,0.00,,,-99.99,,2013-07-06 04:43:00,